Location: Donald C. Martin Observatory
(38.3885°N, 82.3916°W)
Time: 03:46:20
(UTC-05:00)

Cosmos 1484 Rocket - Visible Passes

Search period start: 11 February 2016 00:00
Search period end: 21 February 2016 00:00
Orbit: 509 x 565 km, 97.4° (Epoch: 10 February)

Date Brightness Start Highest point End Pass type
(mag) Time Alt. Az. Time Alt. Az. Time Alt. Az.
11 Feb 5.0 19:47:05 10° SSW 19:50:12 25° W 19:53:22 10° NW visible
12 Feb 4.6 19:38:34 10° SSW 19:41:56 32° W 19:45:19 10° NNW visible
13 Feb 4.0 19:30:07 10° S 19:33:39 41° W 19:37:13 10° NNW visible
14 Feb 3.5 19:21:44 10° S 19:25:22 53° W 19:29:04 10° NNW visible
15 Feb 3.0 19:13:24 10° S 19:17:06 70° WSW 19:20:52 10° NNW visible
16 Feb 6.2 06:50:33 10° ENE 06:52:54 15° E 06:55:16 10° SE visible
16 Feb 2.6 19:05:07 10° SSE 19:08:50 89° E 19:12:37 10° NNW visible
17 Feb 6.5 06:42:59 10° ENE 06:44:35 12° E 06:46:11 10° ESE visible
17 Feb 2.6 18:56:54 10° SSE 19:00:35 69° ENE 19:04:20 10° N visible
18 Feb 2.8 18:48:42 10° SSE 18:52:20 53° ENE 18:56:02 10° N visible
19 Feb 3.1 18:40:35 10° SE 18:44:06 41° ENE 18:47:41 10° N visible
19 Feb 6.2 20:17:37 10° WSW 20:18:48 11° W 20:20:01 10° WNW visible
20 Feb 3.4 18:32:30 10° SE 18:35:51 32° ENE 18:39:17 10° N visible
20 Feb 6.0 20:08:23 10° SW 20:10:28 14° W 20:12:35 10° WNW visible
